Location: *
(31.2983°S, 151.4094°E)
Time: 16:37:58
(UTC+00:00)

Cosmos 2297 - Pass Details

Date: 29 November 2019
Orbit: 835 x 859 km, 71.0° (Epoch: 14 December)

Event Time Altitude Azimuth Distance (km) Brightness Sun altitude
Exits shadow 14:21:33 12° 236° (SW) 2,310 6.1 -36.4°
Drops below altitude 10° 14:23:45 10° 213° (SSW) 2,469 6.6 -36.3°
Sets 14:27:58 0° 183° (S) 3,413 7.8 -36.1°
